Dewpoint
58 58 57 57 57 57 55 54 53 52 51 51 53 54 54 55 54 55 55 55 55 55 55 52 53 55 55 56 57 57 57 57 58 57 57 57 56 56 55 55 55 55 55 55 55 54 54 54 54 54 54 54 54 54 55 56 57 58 59 59 60 60 61 61 62 62 61 61 61
58 56 56 56 55 54 53 50 50 50 50 52 54 55 55 55 55 55 55 55 55 55 55 54 54 54 54 55 55 55 55 56 56 56 56 56 55 55 55 55 55 54 54 54 52 52 52 51 52 52 52 51 51 51 51 52 54 54 55 55 57 58 59 60 61 61 62 62 62
56 55 54 54 53 52 50 49 48 49 50 53 55 56 56 56 56 56 56 56 56 56 55 55 55 54 54 53 53 53 52 53 54 55 55 55 55 55 55 54 54 53 53 52 51 51 51 50 51 52 52 51 50 50 50 49 50 50 50 51 52 53 54 55 57 58 59 60 61
55 53 52 52 51 50 49 47 47 48 50 53 55 55 56 56 56 56 57 56 57 57 57 57 57 56 55 55 53 52 52 51 52 53 54 54 53 53 52 52 51 51 50 50 50 50 50 50 50 51 50 50 50 50 49 49 49 49 49 49 49 50 50 51 51 52 54 55 57
51 50 50 49 48 47 47 47 47 48 50 52 54 55 55 55 55 56 56 56 57 57 58 58 58 58 57 56 54 53 52 52 52 52 52 52 51 50 50 50 50 50 49 49 49 49 49 48 50 50 49 49 49 49 49 47 47 48 48 48 49 49 49 49 49 50 50 51 52
49 48 47 46 46 46 46 46 47 47 48 50 51 52 53 54 55 55 55 55 55 56 56 57 58 58 57 55 54 52 51 51 51 51 51 50 50 50 49 49 49 49 48 48 48 48 48 48 49 49 49 48 48 47 47 46 47 47 47 48 48 48 48 48 48 48 48 49 49
46 46 46 46 46 46 46 46 46 46 47 47 48 49 49 50 52 52 53 52 52 52 53 54 54 54 53 53 52 51 51 50 50 50 49 49 48 48 48 48 47 47 47 47 47 47 47 47 48 49 49 49 49 48 46 46 47 47 48 48 48 48 48 47 47 48 48 48 48
46 46 46 46 46 46 46 46 46 47 47 46 47 47 48 48 49 50 50 50 50 50 50 50 50 50 50 50 50 50 50 49 49 48 48 47 47 46 46 46 46 46 46 46 46 46 46 47 47 47 47 47 48 47 46 46 46 46 46 47 47 47 47 47 47 47 47 47 47
45 46 46 46 46 47 48 47 47 47 47 47 47 47 48 48 49 49 49 49 49 49 48 48 47 47 47 47 47 46 46 46 46 45 45 45 45 45 44 44 45 45 45 45 45 45 45 46 46 46 46 46 46 46 45 44 45 46 46 46 46 46 46 45 46 47 48 49 49
45 45 45 46 46 46 47 48 48 48 47 47 47 48 48 49 48 48 48 48 48 47 46 46 46 46 45 44 44 43 43 43 43 43 43 43 43 43 43 43 43 43 43 43 43 44 44 45 45 44 44 44 44 44 44 44 45 46 46 46 46 46 46 47 47 48 50 51 51
45 45 45 46 46 46 47 47 48 48 47 46 46 47 47 47 47 47 47 47 46 46 45 45 44 44 44 43 43 42 42 42 42 42 42 42 42 42 41 41 42 42 42 42 42 43 44 44 44 43 43 43 43 43 44 45 45 46 46 47 47 47 47 49 50 51 52 53 53
45 46 46 46 46 46 46 46 47 47 47 46 46 46 46 46 46 46 46 46 46 45 44 43 43 43 42 42 42 42 42 41 41 41 42 41 41 41 41 41 41 41 41 41 41 43 44 44 44 44 44 42 42 43 44 45 46 46 47 47 47 47 48 50 51 52 53 53 54
46 46 46 46 46 46 46 46 46 46 46 46 46 46 46 45 46 46 46 46 45 44 43 42 42 42 41 41 41 41 41 41 41 41 41 41 41 41 41 41 41 41 41 41 41 42 43 43 44 44 44 44 43 44 44 44 44 45 46 46 46 46 47 48 50 51 52 52 53
46 46 46 46 46 46 46 45 46 46 46 46 45 45 45 44 45 45 45 44 44 43 42 42 42 42 42 41 41 41 41 40 40 40 41 41 40 40 40 41 41 41 41 41 41 42 43 45 44 45 46 46 46 46 45 45 45 45 46 46 45 45 46 47 48 50 50 51 52
46 46 45 45 45 45 45 45 45 45 45 45 44 44 44 44 44 44 43 42 42 41 41 41 41 42 42 41 41 41 40 40 40 40 41 41 40 40 40 40 40 41 41 42 43 43 44 44 45 46 46 47 47 47 47 47 46 46 46 46 46 46 46 47 49 50 50 50 51
45 45 45 45 45 45 45 45 45 45 44 44 43 43 42 42 42 42 42 41 41 41 41 41 41 41 41 42 41 41 41 40 40 40 40 40 40 40 40 40 41 42 43 44 45 45 45 44 45 46 46 46 46 46 47 47 47 47 47 47 47 47 47 47 49 49 50 50 50
44 44 44 44 44 44 44 44 44 44 43 42 42 42 42 41 42 42 43 42 41 41 41 41 40 40 41 41 41 41 41 40 40 40 40 40 40 40 40 41 41 42 44 45 45 45 45 45 44 44 44 45 45 46 46 46 46 46 46 46 46 46 46 46 47 48 49 50 50
44 43 43 43 43 43 43 42 42 42 42 41 41 41 41 41 41 41 42 42 41 41 41 40 40 40 40 40 40 41 41 39 39 40 40 41 41 40 40 41 41 42 42 43 43 42 42 43 43 44 44 44 44 45 45 45 45 45 45 45 45 45 45 45 45 46 47 48 49
43 43 42 42 42 42 43 42 42 41 41 41 41 41 41 40 40 40 41 41 41 41 40 40 40 39 39 39 39 40 41 40 40 40 41 41 41 41 41 42 42 42 42 42 42 42 42 42 43 44 44 43 44 44 44 44 43 43 43 43 43 43 43 44 44 44 45 46 46
42 42 42 42 42 42 42 42 41 41 41 40 40 40 40 40 40 40 40 40 40 40 39 39 39 39 38 38 39 39 40 41 40 41 41 41 41 42 43 43 43 42 42 42 41 42 42 43 43 43 43 43 43 43 43 43 43 42 42 42 42 42 42 43 43 43 43 44 45
41 41 41 41 41 41 41 41 41 40 40 40 40 40 39 39 39 39 39 40 40 39 39 39 39 38 39 39 39 39 40 41 40 40 41 41 41 42 43 43 43 42 42 42 42 42 42 43 43 43 43 43 43 42 42 42 42 42 41 41 41 41 41 41 41 41 42 42 43
41 41 41 41 41 41 41 40 40 40 40 39 39 39 39 39 39 38 39 39 39 39 39 38 38 38 39 39 39 39 39 39 39 40 40 40 41 42 43 41 42 42 42 42 42 42 42 42 42 42 42 42 42 42 42 42 41 41 41 41 41 41 41 41 41 41 41 41 41
41 41 41 41 41 41 41 41 40 40 39 39 38 38 38 38 38 38 38 38 39 39 38 38 38 38 38 38 38 38 38 38 38 39 40 40 41 42 42 41 41 41 41 41 41 41 42 42 42 42 42 41 41 41 41 41 41 41 41 41 40 40 40 40 40 40 41 41 41
40 41 41 41 41 41 41 41 40 40 39 38 38 38 38 38 38 38 38 38 38 38 38 38 38 39 39 39 39 39 38 38 39 40 41 42 42 42 41 41 40 38 38 40 41 42 42 42 41 41 41 41 41 41 41 41 41 40 40 40 40 40 39 39 39 40 40 40 41
41 41 41 41 41 41 41 40 40 39 38 37 37 37 37 37 37 38 38 38 39 39 39 39 40 40 40 40 40 40 40 39 40 40 41 42 42 42 42 42 40 38 38 40 42 44 44 43 42 42 41 41 41 41 41 40 40 40 40 40 40 39 39 39 38 39 40 40 41
41 41 41 40 40 40 40 40 40 39 38 37 37 37 37 37 37 38 39 39 39 40 40 40 40 41 41 41 41 40 41 41 41 41 41 41 41 42 42 42 41 40 40 41 43 44 45 45 45 43 42 41 41 41 40 40 40 40 40 40 40 39 38 38 38 39 39 39 40
40 40 40 40 40 40 40 41 41 41 40 38 38 38 38 38 39 39 39 39 39 40 40 40 40 41 42 41 41 41 41 41 41 41 40 40 39 39 39 39 39 40 41 43 43 44 45 46 46 45 43 41 41 40 40 40 40 40 40 40 39 39 38 38 38 38 39 39 39
40 40 40 40 41 41 41 41 41 41 41 40 40 40 41 41 42 41 40 38 38 39 40 41 41 42 41 41 41 41 41 41 41 41 41 41 39 38 38 40 41 42 42 43 44 45 45 46 46 45 44 42 41 40 40 40 40 40 39 39 38 38 38 38 38 38 38 38 38
41 41 41 41 42 42 42 42 41 41 40 39 40 41 41 41 41 41 40 39 40 40 41 42 42 42 41 39 40 41 41 41 41 41 41 40 38 37 38 40 41 41 43 44 44 45 46 46 46 46 45 43 41 41 40 40 40 39 39 38 38 38 38 37 38 38 38 38 38
41 41 42 42 42 43 43 43 43 42 41 41 41 41 42 41 40 40 41 41 41 41 41 41 41 41 40 40 40 40 40 40 40 39 38 37 36 35 36 37 37 39 42 44 45 45 46 46 46 45 45 44 42 41 40 40 39 39 39 38 38 38 38 38 38 38 38 38 38
41 41 42 43 43 43 44 44 43 43 42 42 42 42 42 42 41 42 42 41 41 41 41 41 40 39 40 41 40 39 39 40 41 41 40 38 39 39 38 37 37 39 42 44 45 45 45 45 45 45 44 44 42 40 39 39 39 38 38 38 38 38 38 37 37 37 37 37 37
41 42 43 43 43 44 44 43 43 43 42 42 42 42 42 42 42 42 42 41 41 41 41 40 39 40 40 41 40 40 40 41 41 41 41 41 40 40 40 40 39 41 42 44 45 45 44 44 44 44 43 43 41 40 38 38 38 38 38 38 37 37 37 37 37 37 37 37 37
41 41 42 44 44 44 43 43 42 42 42 42 42 42 42 42 41 41 41 41 41 41 41 40 40 40 40 40 40 40 41 41 41 42 42 41 41 41 41 41 41 42 43 44 44 44 44 43 43 43 43 42 41 39 37 37 37 37 37 37 37 37 37 36 36 36 36 37 37
41 41 42 44 44 43 42 42 42 42 42 42 42 41 41 41 41 41 41 41 41 41 41 41 41 41 40 40 40 41 41 41 41 41 41 41 41 41 40 40 40 41 43 44 44 44 43 43 42 42 42 41 39 37 37 37 37 37 36 36 36 36 36 36 36 35 35 36 36
42 42 43 44 43 42 41 41 41 42 42 41 41 41 41 41 41 41 41 42 41 41 41 41 41 41 41 41 41 41 41 41 41 41 41 41 41 41 40 39 39 41 43 43 43 43 43 42 41 41 41 40 37 37 36 37 36 35 34 34 34 34 34 34 34 34 34 35 35
43 43 43 42 40 39 40 41 41 41 41 41 41 41 40 40 40 41 41 41 41 41 41 41 41 42 42 41 41 41 41 40 40 40 41 41 40 40 40 39 39 41 42 43 43 42 42 41 41 41 40 38 36 36 36 35 35 34 33 33 32 32 32 32 33 33 34 34 34
43 43 42 40 38 38 39 41 41 41 41 41 41 41 40 40 40 40 40 41 40 41 41 41 41 41 41 41 40 40 39 39 39 40 40 41 40 40 39 39 39 40 41 42 42 41 41 41 40 40 39 37 35 35 35 34 34 33 32 32 31 31 31 31 32 32 33 33 34
42 42 42 41 40 40 40 40 41 41 41 41 41 41 40 40 40 41 41 41 41 41 41 41 41 41 40 39 39 39 39 39 39 39 40 40 40 39 39 39 38 39 41 41 41 41 40 40 40 39 38 36 35 34 34 33 33 32 32 31 31 30 30 30 31 32 33 33 35
43 43 42 41 41 41 40 40 41 41 41 41 41 40 40 40 40 41 41 41 41 41 41 40 40 40 39 39 38 38 37 37 38 39 39 39 39 39 39 38 38 39 40 41 41 40 40 39 39 39 38 37 34 33 33 33 32 32 32 31 31 30 30 29 30 31 32 34 36
43 43 42 42 41 41 41 40 41 41 41 41 41 40 40 41 40 41 41 41 41 41 40 40 39 39 39 39 38 37 36 36 36 37 37 38 38 39 39 38 37 38 39 40 40 40 39 39 39 39 38 37 34 33 33 32 32 32 31 31 30 30 29 29 29 30 31 32 35
42 42 42 42 41 41 41 41 41 41 41 41 41 41 41 41 40 40 40 40 40 40 40 40 39 39 39 38 37 36 35 34 34 35 35 37 37 38 38 37 36 36 37 38 39 40 39 39 39 39 38 37 33 32 32 32 32 32 31 30 30 29 29 29 29 30 30 31 32